DAL450 KATL-KRDU

Flight info

Callsign DAL450
Flight time N/A
Altitude 37000
Route KATL/27R GAIRY2 IRQ DCT PYRES DMSTR2 KRDU/23L
Aircraft A321/M-SDG/C

Departure

Time 2026-05-07 01:07
Airport Hartsfield Jackson Atlanta International Airport (KATL)

Arrival

Time N/A
Airport Raleigh-Durham International Airport (KRDU)
Time Latitude Longitude Altitude Speed Heading
2026-05-07 00:42 33.63885 -84.42872 1005 ft 0 kts 280°
2026-05-07 00:54 33.63883 -84.42864 1004 ft 2 kts 277°
2026-05-07 00:54 33.63883 -84.42846 1004 ft 2 kts 266°
2026-05-07 00:54 33.63884 -84.42829 1004 ft 2 kts 269°
2026-05-07 00:54 33.63884 -84.42811 1004 ft 2 kts 268°
2026-05-07 00:55 33.63885 -84.42793 1004 ft 2 kts 269°
2026-05-07 00:55 33.63885 -84.42780 1004 ft 0 kts 269°
2026-05-07 01:00 33.63884 -84.42785 1004 ft 1 kts 257°
2026-05-07 01:00 33.63873 -84.42796 1004 ft 3 kts 217°
2026-05-07 01:00 33.63850 -84.42805 1004 ft 4 kts 180°
2026-05-07 01:00 33.63813 -84.42806 1004 ft 5 kts 183°
2026-05-07 01:01 33.63767 -84.42810 1004 ft 7 kts 185°
2026-05-07 01:01 33.63713 -84.42804 1003 ft 8 kts 152°
2026-05-07 01:01 33.63673 -84.42754 1003 ft 9 kts 111°
2026-05-07 01:01 33.63654 -84.42669 1001 ft 10 kts 91°
2026-05-07 01:02 33.63653 -84.42567 998 ft 14 kts 92°
2026-05-07 01:02 33.63654 -84.42443 994 ft 13 kts 89°
2026-05-07 01:02 33.63654 -84.42314 990 ft 17 kts 91°
2026-05-07 01:02 33.63654 -84.42141 986 ft 22 kts 90°
2026-05-07 01:03 33.63655 -84.41945 978 ft 25 kts 91°
2026-05-07 01:03 33.63655 -84.41733 972 ft 23 kts 89°
2026-05-07 01:03 33.63654 -84.41593 969 ft 16 kts 92°
2026-05-07 01:03 33.63654 -84.41442 965 ft 19 kts 89°
2026-05-07 01:04 33.63651 -84.41299 962 ft 16 kts 90°
2026-05-07 01:04 33.63654 -84.41155 960 ft 18 kts 90°
2026-05-07 01:04 33.63654 -84.40999 958 ft 19 kts 90°
2026-05-07 01:04 33.63631 -84.40912 956 ft 9 kts 158°
2026-05-07 01:05 33.63575 -84.40906 956 ft 2 kts 184°
2026-05-07 01:05 33.63574 -84.40906 956 ft 0 kts 184°
2026-05-07 01:05 33.63564 -84.40907 956 ft 3 kts 184°
2026-05-07 01:06 33.63530 -84.40910 956 ft 5 kts 186°
2026-05-07 01:06 33.63483 -84.40919 956 ft 6 kts 210°
2026-05-07 01:06 33.63471 -84.41047 958 ft 45 kts 271°
2026-05-07 01:06 33.63470 -84.41808 975 ft 133 kts 270°
2026-05-07 01:07 33.63478 -84.43164 1262 ft 180 kts 270°
2026-05-07 01:07 33.63502 -84.44715 2016 ft 197 kts 268°
2026-05-07 01:07 33.63489 -84.46423 2827 ft 218 kts 265°
2026-05-07 01:07 33.63245 -84.48287 3391 ft 234 kts 249°
2026-05-07 01:08 33.62530 -84.50074 4020 ft 244 kts 240°
2026-05-07 01:08 33.61683 -84.51871 4731 ft 252 kts 240°
2026-05-07 01:08 33.60791 -84.53676 5551 ft 255 kts 239°
2026-05-07 01:08 33.59855 -84.55428 6554 ft 250 kts 238°
2026-05-07 01:09 33.58864 -84.57103 7395 ft 251 kts 231°
2026-05-07 01:09 33.57446 -84.58376 8054 ft 264 kts 208°
2026-05-07 01:09 33.55595 -84.58773 8719 ft 282 kts 184°
2026-05-07 01:09 33.53631 -84.58266 9464 ft 291 kts 174°
2026-05-07 01:10 33.51678 -84.57893 10207 ft 281 kts 188°
2026-05-07 01:10 33.49745 -84.58026 10906 ft 280 kts 190°
2026-05-07 01:10 33.47774 -84.57631 11480 ft 303 kts 163°
2026-05-07 01:10 33.46090 -84.55997 12021 ft 328 kts 133°
2026-05-07 01:11 33.45131 -84.53418 12307 ft 356 kts 104°
2026-05-07 01:11 33.45054 -84.50394 12591 ft 374 kts 87°
2026-05-07 01:11 33.45307 -84.47250 12935 ft 386 kts 86°
2026-05-07 01:11 33.45524 -84.44026 13422 ft 391 kts 89°
2026-05-07 01:12 33.45613 -84.40775 13983 ft 394 kts 91°
2026-05-07 01:12 33.45620 -84.37492 14531 ft 397 kts 92°
2026-05-07 01:12 33.45617 -84.34181 15068 ft 401 kts 90°
2026-05-07 01:12 33.45781 -84.30837 15599 ft 404 kts 86°
2026-05-07 01:13 33.46037 -84.27481 16125 ft 408 kts 85°
2026-05-07 01:13 33.46217 -84.24091 16602 ft 411 kts 91°
2026-05-07 01:13 33.46135 -84.20668 17114 ft 413 kts 94°
2026-05-07 01:13 33.46001 -84.17226 17610 ft 416 kts 94°
2026-05-07 01:14 33.45854 -84.13756 18085 ft 421 kts 95°
2026-05-07 01:14 33.45699 -84.10244 18520 ft 425 kts 94°
2026-05-07 01:14 33.45544 -84.06707 18970 ft 428 kts 94°
2026-05-07 01:14 33.45383 -84.03145 19439 ft 431 kts 95°
2026-05-07 01:15 33.45223 -83.99570 19904 ft 433 kts 94°
2026-05-07 01:15 33.45063 -83.95969 20350 ft 436 kts 94°
2026-05-07 01:15 33.44903 -83.92340 20710 ft 441 kts 94°
2026-05-07 01:15 33.44733 -83.88676 21124 ft 444 kts 94°
2026-05-07 01:16 33.44559 -83.84981 21498 ft 448 kts 94°
2026-05-07 01:16 33.44387 -83.81261 21918 ft 450 kts 94°
2026-05-07 01:16 33.44217 -83.77504 22324 ft 453 kts 94°
2026-05-07 01:16 33.44038 -83.73730 22711 ft 457 kts 94°
2026-05-07 01:17 33.43853 -83.69920 23115 ft 460 kts 94°
2026-05-07 01:17 33.43670 -83.66101 23560 ft 461 kts 94°
2026-05-07 01:17 33.43477 -83.62286 24065 ft 461 kts 94°
2026-05-07 01:17 33.43395 -83.58455 24471 ft 464 kts 85°
2026-05-07 01:18 33.43945 -83.54660 24859 ft 464 kts 73°
2026-05-07 01:18 33.44790 -83.50933 25308 ft 465 kts 71°
2026-05-07 01:18 33.45668 -83.47209 25709 ft 468 kts 71°
2026-05-07 01:18 33.46512 -83.43440 26158 ft 470 kts 72°
2026-05-07 01:19 33.47316 -83.39644 26604 ft 473 kts 73°
2026-05-07 01:19 33.48092 -83.35820 27014 ft 475 kts 74°
2026-05-07 01:19 33.48858 -83.31951 27387 ft 478 kts 74°
2026-05-07 01:19 33.49614 -83.28053 27753 ft 481 kts 75°
2026-05-07 01:20 33.50375 -83.24137 28116 ft 483 kts 75°
2026-05-07 01:20 33.51126 -83.20221 28499 ft 485 kts 74°
2026-05-07 01:20 33.51882 -83.16285 28855 ft 487 kts 75°
2026-05-07 01:20 33.52639 -83.12331 28968 ft 490 kts 74°
2026-05-07 01:21 33.53404 -83.08356 28974 ft 490 kts 75°
2026-05-07 01:21 33.54914 -83.00442 28980 ft 488 kts 75°
2026-05-07 01:22 33.56420 -82.92517 28975 ft 488 kts 74°
2026-05-07 01:22 33.57920 -82.84608 28968 ft 488 kts 75°
2026-05-07 01:23 33.59421 -82.76688 28963 ft 489 kts 75°
2026-05-07 01:23 33.60913 -82.68748 28971 ft 488 kts 74°
2026-05-07 01:24 33.62399 -82.60814 28974 ft 488 kts 73°
2026-05-07 01:24 33.63888 -82.52868 28977 ft 489 kts 74°
2026-05-07 01:25 33.65362 -82.44923 28976 ft 487 kts 74°
2026-05-07 01:25 33.66840 -82.36995 28968 ft 487 kts 73°
2026-05-07 01:26 33.68312 -82.29067 28963 ft 486 kts 74°
2026-05-07 01:26 33.69815 -82.21162 28942 ft 485 kts 70°
2026-05-07 01:27 33.72205 -82.13695 28943 ft 476 kts 57°
2026-05-07 01:27 33.75654 -82.06920 28949 ft 473 kts 50°
2026-05-07 01:28 33.79313 -82.00335 28950 ft 472 kts 49°
2026-05-07 01:28 33.82783 -81.94021 28950 ft 471 kts 49°